Das Wetter in  D-61279 Heinzenberg / Taunus





Wetter Minimum- & Maximum-Werte im November 2009

Standort: Heinzenberg / Taunus - Höhe 297 m         8 24' 1" Ost 50 21' 51" Nord
(   3-stündige Aktualisierung    letzte Aktualisierung um 19:04 am 30.11.2009  )


Messgrösse

Minimum

Maximum

Durchschnitt

Temperatur West /
Luftfeuchte West
Anklicken für Monats-Diagramm

-1,2 C

06:46
12.11.2009

46 %

13:44
29.11.2009

16,1 C

15:17
21.11.2009

99 %

03:38
02.11.2009

Temp

8,5 C

Feuchte

85 %

Temperatur Ost /
Luftfeuchte Ost
Anklicken für Monats-Diagramm

-1,0 C

06:51
12.11.2009

--

--
--

15,6 C

15:22
21.11.2009

--

--
--

8,4 C

--

Luftdruck Anklicken für Monats-Diagramm

996,6 hPa

21:59
29.11.2009

1027,5 hPa

08:17
21.11.2009

1011,9 hPa

Taupunkt

-1,5 C

06:46
12.11.2009

11,8 C

19:22
16.11.2009

6,1 C

Windchill
( gefühlte Temperatur )

-7,6 C

08:58
27.11.2009

16,1 C

15:17
21.11.2009

3,9 C

Windgeschwindigkeit /
Windrichtung
Anklicken für Monats-Diagramm

---

58,4 km/h / W-SW

00:09
29.11.2009

15,4 km/h
W-SW

Helligkeit /
Sonnenschein
Anklicken für Monats-Diagramm
Anklicken für Monats-Diagramm

Sonnenschein:

36:11 Stunden

Max: 7:00 Std am
19.11.2009

61,6 klux

12:37
01.11.2009

10,4 klux

Solarstrahlung Anklicken für Monats-Diagramm

---

421 W/m

12:37
01.11.2009

79 W/m

Regenmenge
    November 2009
Anklicken für Monats-Diagramm

Insgesamt 47,4 l/m

in 56:53 Stunden
an 17 Tagen

12,5 l/m

12:33
17.11.2009

Gesamtmenge

47,4 l/m

Regen-Tage
    November 2009
Anklicken für Monats-Diagramm

>   0 mm/Tag

>   2 mm/Tag

>   5 mm/Tag

> 10 mm/Tag

> 20 mm/Tag

17 Tage     
5 Tage     
4 Tage     
  1 Tag     
0 Tage     

Eisige Tage November 2009 / 2008

Tmin ≤ -10C     

0 Tage

/

0 Tage

Eistage November 2009 / 2008

Tmax <     0C     

0 Tage

/

0 Tage

Frosttage November 2009 / 2008

Tmin ≤     0C     

  1 Tag

/

11 Tage

Kalte Tage November 2009 / 2008

Tmax <   10C     

6 Tage

/

17 Tage

Warme Tage November 2009 / 2008

Tmax ≥   20C     

0 Tage

/

0 Tage

Sommertage November 2009 / 2008

Tmax ≥   25C     

0 Tage

/

0 Tage

Heisse Tage November 2009 / 2008

Tmax ≥   30C     

0 Tage

/

0 Tage


Monatsdiagramm November 2009

Die Kurven zeigen den Durchschnittswert des jeweiligen Tages an


Wetter-Monatsübersicht November 2009
Datum
  Temperatur
   Luftdruck
   Wind
  Regen
   Luftfeuchte
   Helligkeit

Sonnen-
schein


Temp.

Min.
Temp.

Max.
Temp.


Luftdruck

Min.
Luftdruck

Max.
Luftdruck

-Geschw.
Haupt-Richtg.

Max.
Wind

Menge /
Dauer


Feuchte

Min.
Feuchte

Max.
Feuchte


Helligkeit

Max.
Helligkeit

1.
November
5,8 C0,8 C
03:38
12,3 C
13:43
1016,6 hPa1004,8 hPa
23:52
1026,2 hPa
00:02
7,8 km/h
O-SO
35,8 km/h
18:43  
9,6 l/m
4:59 Stunden
90 %76 %
13:48
97 %
06:02
16,0 klux61,6 klux
12:37
1:51 Std 
2.
November
9,2 C7,4 C
00:02
10,5 C
10:58
1002,6 hPa1001,5 hPa
04:13
1003,7 hPa
00:02
6,9 km/h
SO
26,7 km/h
00:42  
8,8 l/m
6:22 Stunden
98 %96 %
13:48
99 %
03:38
7,3 klux19,1 klux
10:02
--- 
11.
November
5,2 C4,3 C
21:46
5,6 C
18:41
1011,8 hPa1011,2 hPa
18:41
1012,4 hPa
21:46
1,9 km/h
W-SW
15,1 km/h
19:51  
---
95 %94 %
18:41
97 %
21:41
4,3 klux0,0 klux
18:41
--- 
12.
November
3,9 C-1,2 C
06:46
7,2 C
21:41
1011,4 hPa1009,3 hPa
10:06
1013,2 hPa
23:56
6,7 km/h
W-SW
29,6 km/h
13:21  
0,5 l/m
2:05 Stunden
96 %94 %
02:01
99 %
07:26
5,913 klux15,900 klux
14:56
--- 
13.
November
10,3 C6,6 C
00:01
13,2 C
15:31
1012,7 hPa1011,8 hPa
07:36
1013,8 hPa
09:31
11,1 km/h
W-SW
27,3 km/h
22:41  
0,2 l/m
1:00 Stunden
91 %82 %
15:41
98 %
05:16
9,9 klux32,8 klux
11:31
1:25 Std 
14.
November
11,8 C9,9 C
23:51
14,4 C
10:41
1010,5 hPa1008,1 hPa
12:01
1012,7 hPa
23:51
20,7 km/h
W-SW
43,4 km/h
22:01  
0,8 l/m
1:30 Stunden
81 %65 %
10:31
88 %
15:16
5,3 klux15,1 klux
10:11
--- 
15.
November
9,3 C6,1 C
23:57
11,4 C
16:11
1014,0 hPa1012,6 hPa
16:11
1016,0 hPa
07:31
12,1 km/h
W-SW
38,4 km/h
00:26  
---
50 Minuten
83 %69 %
16:56
91 %
23:07
7,5 klux22,0 klux
09:46
45 Min 
16.
November
9,1 C5,4 C
07:12
12,4 C
19:22
1010,6 hPa1007,4 hPa
15:07
1013,3 hPa
01:37
9,3 km/h
W-SW
31,4 km/h
14:07  
5,9 l/m
5:31 Stunden
96 %91 %
00:02
99 %
09:12
3,3 klux11,3 klux
14:17
--- 
17.
November
9,5 C7,7 C
21:03
11,9 C
00:03
1013,1 hPa1010,6 hPa
09:23
1019,2 hPa
23:04
7,5 km/h
W-SW
31,0 km/h
21:38  
12,5 l/m
12:55 Stunden
97 %94 %
00:03
99 %
12:13
3,5 klux13,4 klux
14:18
--- 
18.
November
8,6 C6,2 C
06:04
11,7 C
15:19
1020,7 hPa1018,7 hPa
15:19
1022,3 hPa
08:09
22,2 km/h
W-SW
46,6 km/h
11:24  
---
83 %65 %
15:19
96 %
06:09
24,7 klux55,0 klux
12:24
6:25 Std 
19.
November
8,7 C2,9 C
22:50
14,2 C
14:00
1023,5 hPa1022,1 hPa
17:15
1025,4 hPa
09:15
10,2 km/h
W-SW
30,7 km/h
02:15  
---
80 %55 %
14:00
92 %
23:25
25,3 klux52,8 klux
11:00
7:00 Std 
20.
November
7,7 C0,7 C
07:55
15,7 C
13:55
1023,1 hPa1021,3 hPa
13:55
1026,2 hPa
23:42
4,3 km/h
W-SW
26,4 km/h
13:15  
---
83 %61 %
15:05
99 %
09:45
19,1 klux38,2 klux
12:15
5:45 Std 
21.
November
10,1 C7,6 C
03:02
16,1 C
15:17
1024,1 hPa1017,8 hPa
23:53
1027,5 hPa
08:17
1,9 km/h
W-SW
18,6 km/h
12:17  
---
84 %64 %
13:52
94 %
08:12
14,5 klux39,5 klux
11:57
2:30 Std 
22.
November
10,7 C8,5 C
02:23
13,0 C
13:28
1014,0 hPa1010,7 hPa
22:44
1018,0 hPa
00:28
22,4 km/h
W-SW
56,8 km/h
21:18  
---
25 Minuten
75 %63 %
14:18
88 %
02:23
7,5 klux42,5 klux
13:28
25 Min 
23.
November
9,1 C6,8 C
03:44
11,2 C
23:05
1007,5 hPa1003,3 hPa
21:04
1010,9 hPa
01:09
38,7 km/h
W-SW
57,2 km/h
15:09  
1,2 l/m
5:10 Stunden
82 %69 %
00:04
94 %
23:50
6,2 klux35,8 klux
10:04
40 Min 
24.
November
10,4 C9,0 C
09:10
12,0 C
15:45
1012,1 hPa1005,5 hPa
00:05
1015,7 hPa
20:00
27,1 km/h
W
44,6 km/h
00:30  
1,2 l/m
3:35 Stunden
83 %74 %
01:40
97 %
14:05
6,0 klux15,2 klux
09:45
5 Min 
25.
November
10,5 C8,3 C
23:47
13,2 C
13:55
1010,4 hPa1007,2 hPa
14:16
1015,7 hPa
00:11
20,4 km/h
W-SW
43,8 km/h
12:26  
3,3 l/m
2:15 Stunden
76 %61 %
18:31
91 %
21:36
20,3 klux53,9 klux
12:01
5:00 Std 
26.
November
8,2 C7,5 C
19:27
9,5 C
11:52
1011,1 hPa1008,8 hPa
23:38
1012,9 hPa
10:32
29,1 km/h
W-SW
48,2 km/h
11:52  
0,3 l/m
1:21 Stunden
79 %65 %
11:52
88 %
00:02
14,3 klux45,5 klux
12:27
2:45 Std 
27.
November
7,2 C5,4 C
23:18
8,6 C
02:38
1006,5 hPa1003,7 hPa
06:43
1009,1 hPa
22:08
29,3 km/h
W-SW
55,3 km/h
11:28  
1,7 l/m
3:20 Stunden
81 %72 %
15:18
92 %
07:33
7,0 klux30,6 klux
09:48
15 Min 
28.
November
7,1 C5,4 C
05:18
9,2 C
23:59
1005,8 hPa1002,5 hPa
23:59
1008,1 hPa
05:18
29,8 km/h
W-SW
53,7 km/h
22:54  
0,3 l/m
2:55 Stunden
84 %69 %
23:59
90 %
03:14
4,7 klux13,7 klux
10:13
--- 
29.
November
9,0 C6,4 C
22:35
12,3 C
12:39
999,9 hPa996,6 hPa
21:59
1002,5 hPa
00:04
18,0 km/h
W-SW
58,4 km/h
00:09  
1,2 l/m
2:25 Stunden
70 %46 %
13:44
95 %
22:19
11,4 klux44,3 klux
12:19
1:20 Std 
30.
November
5,6 C4,2 C
23:40
6,7 C
00:15
998,8 hPa996,6 hPa
00:15
1003,1 hPa
23:40
1,9 km/h
W
15,0 km/h
02:55  
---
15 Minuten
91 %85 %
13:10
95 %
02:20
4,3 klux10,1 klux
11:10
--- 



November
2009

Temperatur

  

Luftdruck

  

Wind

  

Regen

  

Luftfeuchte

  

Helligkeit

Sonnen-
schein

Min

Max

Min

Max

Max

Max

Min

Max

Max

Max

8,5 C

-1,2 C

06:46 Uhr
12.11.2009

16,1 C

15:17 Uhr
21.11.2009

1011,9 hPa

996,6 hPa

21:59 Uhr
29.11.2009

1027,5 hPa

08:17 Uhr
21.11.2009

15,4 km/h

W-SW

58,4 km/h

00:09 Uhr
29.11.2009

12,5 l/m

12:55 Stunden
17.11.2009

85 %

46 %

13:44 Uhr
29.11.2009

99 %

03:38 Uhr
02.11.2009

10,4 klux

61,6 klux

12:37 Uhr
01.11.2009

7:00 Std

am
19.11.2009

Gesamt

Gesamt

47,4 l/m

17 Tage
56:53 h

36:11 Std


Wetter-Diagramme November 2009     Heinzenberg / Taunus   
TemperaturLuftfeuchte
SolarstrahlungLuftdruck
HelligkeitSonnenschein
RegenmengeRegendauer
Wind-GeschwindigkeitWind-Richtung